Regional Weather Roundup
Issued by NWS

Home | Current Version | Previous Version | Graphics & Text | Print | Product List | Glossary On
Versions: 1 2 3 4 5 6 7 8 9 10 11 12 13 14 15 16 17 18 19 20 21 22 23 24 25 26 27 28 29 30 31 32 33 34 35 36 37 38 39 40 41 42 43 44 45 46 47 48 49 50
000
ASUS43 KLOT 020512
RWRIL

ILLINOIS REGIONAL WEATHER ROUNDUP
NATIONAL WEATHER SERVICE CHICAGO/ROMEOVILLE IL
1200 AM CDT SUN AUG 02 2015

NOTE: "FAIR" INDICATES FEW OR NO CLOUDS BELOW 12,000 FEET WITH NO
SIGNIFICANT WEATHER AND/OR OBSTRUCTIONS TO VISIBILITY.

* THESE STATIONS ARE NOT UNDER NWS QUALITY CONTROL. THEY ALSO MAY NOT
  REPORT WEATHER SUCH AS PRECIPITATION OR FOG.

ILZ001-002-007-009-015-016-024-020600-
NORTHWEST ILLINOIS

CITY           SKY/WX    TMP DP  RH WIND       PRES   REMARKS
MOLINE         CLEAR     75  69  81 SW7       29.91S
STERLING*      CLEAR     72  64  78 CALM      29.88S
SAVANNA*       CLEAR     73  66  78 S5        29.91R
$$

ILZ003-004-008-010-011-017-018-020600-
NORTH CENTRAL ILLINOIS

CITY           SKY/WX    TMP DP  RH WIND       PRES   REMARKS
ROCKFORD       CLEAR     69  64  84 S6        29.91S
FREEPORT*      CLEAR     70  66  88 SW9       29.92S
ROCHELLE*      CLEAR     67  65  93 SW5       29.92S
DE KALB*       CLEAR     72  65  80 SW8       29.92S
PERU*          CLEAR     72  65  78 SW8       29.93S
$$

ILZ005-006-012>014-019>023-020600-
NORTHEAST ILLINOIS

CITY           SKY/WX    TMP DP  RH WIND       PRES   REMARKS
CHICAGO-OHARE  CLEAR     75  65  70 W9        29.89S
CHICAGO-MIDWAY CLEAR     77  64  64 SW10      29.90S
AURORA         CLEAR     70  64  81 SW6       29.91S
LANSING*       CLEAR     73  64  73 SW7       29.91S
JOLIET*        CLEAR     74  67  77 SW5       29.91S
WAUKEGAN       CLEAR     73  65  75 SW5       29.87F
DUPAGE AIRPORT CLEAR     72  65  78 SW8       29.90F
KANKAKEE*      PTCLDY    69  65  86 CALM      29.94S
WHEELING       CLEAR     76  63  64 W6        29.90S
MORRIS*        CLEAR     71  64  81 SW6       29.91S
ROMEOVILLE*    CLEAR     73  63  71 SW8       29.91S
NORTHERLY ISL    N/A     78  63  59 W9          N/A  HX  80
$$

LMZ740>746-020600-
SOUTHERN LAKE MICHIGAN

STATION/POSITION SKY/WX   TEMP    WIND        PRES    VSBY  WAVE
                          AIR SEA DIR/SP/G                  HT/PER
                          (F)     (DEG/KT/KT) (MB)    (MI)  (FT/S)
HARRISON CRIB              79     250/ 15/ 18   N/A
BURNHAM HARBOR             78     250/  6/ 11   N/A
CALUMET HARBOR             78     240/  6/  9   N/A
BURNS HARBOR               76     220/  9/ 14 1012.9F
MICHIGAN CITY              75     190/ 12/ 14   N/A
MICHIGAN CITY 6N           76 74  240/ 12/ 14   N/A           2/ 3
ST. JOSEPH                 74 73  250/ 14/ 16   N/A           2/ 3
$$

ILZ025>027-034>036-040-047-049-050-058-095>099-020600-
WEST-CENTRAL ILLINOIS

CITY           SKY/WX    TMP DP  RH WIND       PRES   REMARKS
QUINCY         CLEAR     71  67  87 S7        29.96R
GALESBURG*     CLEAR     70  67  92 S3        29.94S
MACOMB*        CLEAR     72  70  93 S5        29.97S
JACKSONVILLE*  PTCLDY    75  67  76 S6        29.96S
PITTSFIELD*    PTCLDY    73  70  88 S5        29.97S
$$

ILZ028>032-037-038-041>044-048-051>054-059>061-020600-
CENTRAL ILLINOIS

CITY           SKY/WX    TMP DP  RH WIND       PRES   REMARKS
PONTIAC        PTCLDY    70  67  89 SW5       29.95S
BLOOMINGTON    MOCLDY    71  65  81 SW8       29.98R
DECATUR        PTCLDY    70  63  78 SW6       29.97F
PEORIA         PTCLDY    73  66  78 S6        29.95S
LACON*         CLEAR     69  65  87 S3        29.93S
LINCOLN*       MOCLDY    71  64  77 CALM      29.96S
SPRINGFIELD    PTCLDY    70  65  84 CALM      29.97S
TAYLORVILLE    CLEAR     64  63  94 S6        29.98R
$$

ILZ033-039-045-046-055>057-062-063-020600-
EAST-CENTRAL ILLINOIS

CITY           SKY/WX    TMP DP  RH WIND       PRES   REMARKS
CHAMPAIGN      MOCLDY    67  63  87 SW5       29.97S
DANVILLE*      MOCLDY    64  63  97 CALM      29.94S
RANTOUL*       MOCLDY    69  65  86 SW6       29.96S
MATTOON        PTCLDY    72  59  63 SW7       29.97S
PARIS*         PTCLDY    65  63  90 SW3       29.98S
$$

ILZ079-100>102-020600-
SOUTHWEST ILLINOIS

CITY           SKY/WX    TMP DP  RH WIND       PRES   REMARKS
ALTON          PTCLDY    69  67  94 CALM      29.98S
BELLEVILLE     MOCLDY    75  72  91 S2        29.97S
CAHOKIA*       PTCLDY    77  69  76 S5        29.97S
SPARTA*        PTCLDY    74  68  81 SE3       30.00S
$$

ILZ064>066-069>071-074>076-080>082-084>086-088>090-092>094-020600-
SOUTH-CENTRAL ILLINOIS

CITY           SKY/WX    TMP DP  RH WIND       PRES   REMARKS
CARBONDALE     CLEAR     72  68  87 CALM      29.99R
CAIRO*         PTCLDY    73  71  94 CALM      29.99R
EFFINGHAM*     CLEAR     67  63  87 CALM      30.00R
MARION         CLEAR     73  66  78 CALM      30.00R
MT. VERNON     PTCLDY    66  61  82 CALM      30.00S
CENTRALIA*     PTCLDY    69  65  89 CALM      29.99S
SALEM*         PTCLDY    69  65  89 CALM      29.99S
METROPOLIS*    CLEAR     71  71 100 CALM      30.00R
$$

ILZ067-068-072-073-078-083-087-091-020600-
SOUTHEAST ILLINOIS

CITY           SKY/WX    TMP DP  RH WIND       PRES   REMARKS
LAWRENCEVILLE  CLEAR     68  65  90 CALM      29.99S
FLORA*         CLEAR     66  63  89 CALM      29.99S
FAIRFIELD*     PTCLDY    67  65  93 CALM      29.99R
HARRISBURG*    PTCLDY    67  67  99 CALM      30.01R
ROBINSON*      CLEAR     63  62  96 CALM      30.00R
CARMI*         CLEAR     66  62  85 CALM      29.99R
$$

ABBREVIATIONS USED IN REMARKS
   TC - TEMPERATURE IN CELSIUS
  WCI - WIND CHILL INDEX
   HX - HEAT INDEX
  VSB - VISIBILITY
$$



USA.gov is the U.S. government's official web portal to all federal, state and local government web resources and services.